FW0069 Weather Reports


Display with metric or nautical units.
time (UTC)temp
F
wind
direction
speed
MPH
gust
MPH
rain 1hr
in
rain 24hr
in
rain mn
in
humidity
%
barometer
mb
20260507040020 76 360 0.0 1.0 0.00 0.00 0.00 23 1015.8
20260507035521 77 360 0.0 1.0 0.00 0.00 0.00 23 1015.6
20260507035021 77 360 0.0 0.0 0.00 0.00 0.00 22 1015.5
20260507034520 77 360 0.0 0.0 0.00 0.00 0.00 22 1015.5
20260507034020 78 360 0.0 0.0 0.00 0.00 0.00 22 1015.7
20260507033521 78 360 0.0 1.0 0.00 0.00 0.00 22 1015.6
20260507032521 79 360 0.0 0.0 0.00 0.00 0.00 21 1015.4
20260507032020 79 360 0.0 0.0 0.00 0.00 0.00 21 1015.3
20260507031020 80 360 0.0 1.0 0.00 0.00 0.00 20 1015.4
20260507030521 80 360 0.0 1.0 0.00 0.00 0.00 19 1015.2
20260507030021 80 360 0.0 1.0 0.00 0.00 0.00 19 1015.2
20260507025521 81 360 0.0 1.0 0.00 0.00 0.00 19 1014.7
20260507024521 81 165 0.0 3.0 0.00 0.00 0.00 18 1014.6
20260507024021 81 360 1.0 3.0 0.00 0.00 0.00 19 1014.5
20260507023520 81 165 1.0 4.0 0.00 0.00 0.00 18 1014.4
20260507023021 82 360 0.0 4.0 0.00 0.00 0.00 18 1014.6
20260507022020 82 131 0.0 5.0 0.00 0.00 0.00 18 1014.4
20260507021521 82 360 2.0 5.0 0.00 0.00 0.00 18 1014.3
20260507021021 82 360 3.0 6.0 0.00 0.00 0.00 18 1014.4
20260507020021 82 360 6.0 6.0 0.00 0.00 0.00 17 1014.4
20260507015520 83 360 1.0 6.0 0.00 0.00 0.00 17 1014.0
20260507015020 83 360 4.0 7.0 0.00 0.00 0.00 17 1013.9
20260507014520 83 360 2.0 7.0 0.00 0.00 0.00 17 1013.9
20260507014021 83 360 3.0 6.0 0.00 0.00 0.00 17 1013.9
20260507013521 83 360 2.0 5.0 0.00 0.00 0.00 17 1013.9
20260507013020 83 360 0.0 5.0 0.00 0.00 0.00 17 1013.8
20260507012020 83 360 3.0 9.0 0.00 0.00 0.00 17 1013.9
20260507011020 84 360 5.0 8.0 0.00 0.00 0.00 17 1013.8
20260507010521 84 360 5.0 8.0 0.00 0.00 0.00 17 1013.8
20260507005520 84 360 3.0 9.0 0.00 0.00 0.00 17 1013.9
20260507004020 84 360 1.0 8.0 0.00 0.00 0.00 17 1014.1
20260507003520 84 360 3.0 8.0 0.00 0.00 0.00 17 1014.1
20260507003020 84 360 3.0 8.0 0.00 0.00 0.00 17 1014.0
20260507002521 84 360 7.0 10.0 0.00 0.00 0.00 17 1014.0
20260507002020 84 360 2.0 10.0 0.00 0.00 0.00 17 1014.0
20260507000521 84 360 2.0 8.0 0.00 0.00 0.00 17 1014.0
20260506235521 83 360 2.0 7.0 0.00 0.00 0.00 17 1013.9
20260506235020 84 360 2.0 7.0 0.00 0.00 0.00 16 1014.0
20260506234520 84 360 6.0 6.0 0.00 0.00 0.00 17 1013.9
20260506234020 83 139 0.0 8.0 0.00 0.00 0.00 17 1013.9
20260506233520 83 360 2.0 8.0 0.00 0.00 0.00 17 1014.1
20260506233020 83 117 3.0 7.0 0.00 0.00 0.00 17 1014.1
20260506232020 83 190 2.0 9.0 0.00 0.00 0.00 18 1014.3
20260506231520 84 360 1.0 9.0 0.00 0.00 0.00 17 1014.5
20260506231021 84 100 2.0 8.0 0.00 0.00 0.00 18 1014.5
20260506230521 83 360 0.0 8.0 0.00 0.00 0.00 18 1014.5
20260506225520 84 360 2.0 9.0 0.00 0.00 0.00 17 1014.6
20260506223520 84 360 2.0 8.0 0.00 0.00 0.00 18 1014.9
20260506223020 83 46 2.0 10.0 0.00 0.00 0.00 17 1014.8
20260506222520 84 360 3.0 11.0 0.00 0.00 0.00 18 1015.0
20260506222020 83 86 9.0 11.0 0.00 0.00 0.00 18 1014.9
20260506221520 84 360 1.0 11.0 0.00 0.00 0.00 18 1015.1
20260506221020 83 360 5.0 13.0 0.00 0.00 0.00 18 1015.0
20260506220521 84 360 6.0 13.0 0.00 0.00 0.00 18 1015.2
20260506220020 84 360 3.0 8.0 0.00 0.00 0.00 18 1015.3
20260506215020 84 99 8.0 10.0 0.00 0.00 0.00 17 1015.6
20260506214520 84 360 3.0 10.0 0.00 0.00 0.00 19 1015.6
20260506213521 83 360 2.0 10.0 0.00 0.00 0.00 19 1015.8
20260506213021 82 360 4.0 8.0 0.00 0.00 0.00 19 1015.7
20260506212520 82 117 4.0 8.0 0.00 0.00 0.00 19 1015.9
20260506212020 83 360 2.0 7.0 0.00 0.00 0.00 19 1016.0
20260506211520 83 65 7.0 10.0 0.00 0.00 0.00 19 1016.1
20260506211020 83 360 6.0 14.0 0.00 0.00 0.00 18 1016.1
20260506210520 83 92 7.0 14.0 0.00 0.00 0.00 19 1016.0
20260506205520 84 360 7.0 11.0 0.00 0.00 0.00 19 1016.3
20260506205020 83 360 6.0 11.0 0.00 0.00 0.00 18 1016.4
20260506204020 83 96 5.0 8.0 0.00 0.00 0.00 20 1016.4
20260506203520 83 360 3.0 10.0 0.00 0.00 0.00 19 1016.5
20260506203020 83 360 4.0 10.0 0.00 0.00 0.00 19 1016.5
20260506202520 81 360 2.0 8.0 0.00 0.00 0.00 20 1016.4
20260506201520 82 85 6.0 9.0 0.00 0.00 0.00 19 1016.6
20260506201020 82 360 5.0 11.0 0.00 0.00 0.00 19 1016.5
20260506200520 82 360 6.0 11.0 0.00 0.00 0.00 20 1016.8
20260506200020 81 360 3.0 8.0 0.00 0.00 0.00 20 1016.7
20260506195521 81 71 7.0 8.0 0.00 0.00 0.00 20 1016.7
20260506195020 81 99 7.0 8.0 0.00 0.00 0.00 20 1016.8
20260506194520 82 91 5.0 9.0 0.00 0.00 0.00 20 1017.2
20260506194020 82 71 3.0 9.0 0.00 0.00 0.00 20 1017.1
20260506193520 82 102 4.0 9.0 0.00 0.00 0.00 20 1017.3
20260506193020 81 360 4.0 8.0 0.00 0.00 0.00 20 1017.1
20260506192520 80 69 5.0 7.0 0.00 0.00 0.00 21 1017.1
20260506192020 80 103 0.0 7.0 0.00 0.00 0.00 21 1017.2
20260506191520 80 360 1.0 7.0 0.00 0.00 0.00 21 1017.4
20260506190520 80 63 2.0 8.0 0.00 0.00 0.00 20 1017.4
20260506190020 80 103 3.0 7.0 0.00 0.00 0.00 21 1017.5
20260506185520 79 360 7.0 7.0 0.00 0.00 0.00 22 1017.6
20260506185020 78 10 3.0 7.0 0.00 0.00 0.00 22 1017.6
20260506184520 78 186 4.0 7.0 0.00 0.00 0.00 22 1017.6
20260506184020 78 360 2.0 7.0 0.00 0.00 0.00 22 1017.7
20260506183020 78 360 4.0 8.0 0.00 0.00 0.00 22 1017.8
20260506182520 77 96 2.0 8.0 0.00 0.00 0.00 23 1017.7
20260506182020 77 44 6.0 8.0 0.00 0.00 0.00 23 1017.6
20260506181521 78 94 3.0 8.0 0.00 0.00 0.00 22 1017.7
20260506181020 76 41 3.0 8.0 0.00 0.00 0.00 23 1017.5
20260506180519 76 360 4.0 8.0 0.00 0.00 0.00 24 1017.6
20260506180019 77 360 3.0 13.0 0.00 0.00 0.00 23 1017.6
20260506175019 76 84 5.0 8.0 0.00 0.00 0.00 25 1017.8
20260506174520 76 101 3.0 11.0 0.00 0.00 0.00 24 1017.7
20260506174020 76 103 2.0 11.0 0.00 0.00 0.00 24 1017.7
20260506173020 75 100 3.0 11.0 0.00 0.00 0.00 25 1017.7
20260506172520 75 360 4.0 11.0 0.00 0.00 0.00 25 1017.7
20260506172020 75 91 6.0 10.0 0.00 0.00 0.00 25 1017.6
20260506171520 74 88 10.0 10.0 0.00 0.00 0.00 25 1017.5
20260506171020 75 25 6.0 9.0 0.00 0.00 0.00 25 1017.7
20260506170520 74 360 4.0 8.0 0.00 0.00 0.00 25 1017.3
20260506170020 73 360 4.0 8.0 0.00 0.00 0.00 26 1017.4
20260506165519 73 360 4.0 10.0 0.00 0.00 0.00 27 1017.5
20260506165020 73 80 5.0 10.0 0.00 0.00 0.00 27 1017.6
20260506164520 73 360 1.0 7.0 0.00 0.00 0.00 26 1017.5
20260506164021 72 360 2.0 7.0 0.00 0.00 0.00 27 1017.4
20260506163520 73 360 4.0 7.0 0.00 0.00 0.00 27 1017.6
20260506163019 72 360 2.0 7.0 0.00 0.00 0.00 27 1017.3
20260506162519 71 96 3.0 7.0 0.00 0.00 0.00 28 1017.4
20260506162020 71 81 2.0 10.0 0.00 0.00 0.00 28 1017.4
20260506161519 71 89 7.0 10.0 0.00 0.00 0.00 29 1017.3
20260506161019 71 360 2.0 7.0 0.00 0.00 0.00 29 1017.4
20260506160519 70 91 5.0 7.0 0.00 0.00 0.00 30 1017.2
20260506160020 70 360 5.0 7.0 0.00 0.00 0.00 29 1017.1
20260506155519 70 51 5.0 7.0 0.00 0.00 0.00 30 1017.5
20260506155019 69 360 2.0 7.0 0.00 0.00 0.00 31 1017.4
20260506154520 68 360 6.0 6.0 0.00 0.00 0.00 32 1017.4
20260506154020 68 360 3.0 6.0 0.00 0.00 0.00 31 1017.3
20260506153520 67 360 3.0 10.0 0.00 0.00 0.00 32 1017.1
20260506153020 67 360 4.0 10.0 0.00 0.00 0.00 33 1017.1
20260506152020 66 360 5.0 7.0 0.00 0.00 0.00 34 1017.1
20260506151019 65 360 5.0 7.0 0.00 0.00 0.00 36 1016.9
20260506150520 65 72 4.0 6.0 0.00 0.00 0.00 37 1017.0
20260506150020 64 78 2.0 6.0 0.00 0.00 0.00 37 1017.0
20260506145519 64 80 2.0 6.0 0.00 0.00 0.00 37 1017.2
20260506145020 64 94 3.0 5.0 0.00 0.00 0.00 37 1017.1
20260506144519 64 67 2.0 4.0 0.00 0.00 0.00 37 1017.0
20260506144020 63 73 0.0 7.0 0.00 0.00 0.00 38 1016.7
20260506143019 62 360 1.0 6.0 0.00 0.00 0.00 38 1016.6
20260506142519 62 72 2.0 5.0 0.00 0.00 0.00 39 1016.6
20260506141519 61 68 2.0 4.0 0.00 0.00 0.00 40 1016.3
20260506141019 59 65 2.0 4.0 0.00 0.00 0.00 41 1016.1
20260506140519 58 360 0.0 2.0 0.00 0.00 0.00 42 1016.1
20260506135520 57 269 0.0 1.0 0.00 0.00 0.00 42 1016.0
20260506135021 57 360 1.0 1.0 0.00 0.00 0.00 40 1016.0
20260506134519 57 360 0.0 2.0 0.00 0.00 0.00 39 1015.9
20260506134021 57 265 0.0 2.0 0.00 0.00 0.00 39 1015.6
20260506133519 56 360 0.0 2.0 0.00 0.00 0.00 39 1015.5
20260506133019 56 360 0.0 2.0 0.00 0.00 0.00 39 1015.4
20260506132020 56 360 0.0 2.0 0.00 0.00 0.00 39 1015.1
20260506130519 56 264 1.0 2.0 0.00 0.00 0.00 38 1015.0
20260506124520 57 265 0.0 3.0 0.00 0.00 0.00 39 1015.0
20260506124019 57 360 0.0 3.0 0.00 0.00 0.00 38 1014.8
20260506123519 57 360 2.0 3.0 0.00 0.00 0.00 38 1014.7
20260506122520 57 264 0.0 3.0 0.00 0.00 0.00 37 1014.5
20260506122019 57 263 0.0 3.0 0.00 0.00 0.00 36 1014.5
20260506121520 57 360 2.0 3.0 0.00 0.00 0.00 37 1014.6
20260506121019 57 265 0.0 2.0 0.00 0.00 0.00 36 1014.5
20260506120519 58 265 1.0 2.0 0.00 0.00 0.00 35 1014.7
20260506120020 58 264 0.0 2.0 0.00 0.00 0.00 35 1014.7
20260506115520 58 360 0.0 3.0 0.00 0.00 0.00 35 1014.6
20260506115020 58 263 0.0 3.0 0.00 0.00 0.00 35 1014.6
20260506114519 58 309 0.0 3.0 0.00 0.00 0.00 34 1014.5
20260506114019 58 308 0.0 3.0 0.00 0.00 0.00 35 1014.5
20260506113519 58 11 1.0 3.0 0.00 0.00 0.00 34 1014.4
20260506112019 58 9 1.0 2.0 0.00 0.00 0.00 34 1014.4
20260506111519 58 9 2.0 3.0 0.00 0.00 0.00 35 1014.4
20260506111019 58 9 0.0 3.0 0.00 0.00 0.00 34 1014.3
20260506110519 58 12 0.0 4.0 0.00 0.00 0.00 34 1014.3
20260506110020 58 13 1.0 4.0 0.00 0.00 0.00 35 1014.3
20260506105519 58 15 3.0 3.0 0.00 0.00 0.00 34 1014.2
20260506104519 58 17 2.0 4.0 0.00 0.00 0.00 34 1014.0
20260506104019 59 21 0.0 3.0 0.00 0.00 0.00 34 1013.9
20260506103519 59 26 0.0 1.0 0.00 0.00 0.00 34 1013.9
20260506102519 59 24 0.0 3.0 0.00 0.00 0.00 33 1013.8
20260506102021 59 24 0.0 2.0 0.00 0.00 0.00 33 1013.8
20260506101519 59 27 0.0 1.0 0.00 0.00 0.00 33 1013.6
20260506101019 59 25 0.0 1.0 0.00 0.00 0.00 33 1013.5
20260506100519 60 24 0.0 4.0 0.00 0.00 0.00 32 1013.7
20260506100019 60 24 0.0 4.0 0.00 0.00 0.00 33 1013.6
20260506095519 60 22 4.0 4.0 0.00 0.00 0.00 33 1013.3
20260506095019 60 331 2.0 4.0 0.00 0.00 0.00 33 1013.2
20260506094021 60 360 2.0 4.0 0.00 0.00 0.00 32 1013.1
20260506093519 60 329 4.0 4.0 0.00 0.00 0.00 32 1013.1
20260506092519 60 360 2.0 3.0 0.00 0.00 0.00 32 1013.1
20260506092019 60 360 1.0 3.0 0.00 0.00 0.00 32 1013.0
20260506091519 61 331 2.0 3.0 0.00 0.00 0.00 32 1013.3
20260506091019 61 332 0.0 1.0 0.00 0.00 0.00 32 1013.1
20260506090519 61 360 0.0 3.0 0.00 0.00 0.00 32 1013.3
20260506090019 61 360 0.0 3.0 0.00 0.00 0.00 32 1013.2
20260506085519 61 360 0.0 4.0 0.00 0.00 0.00 32 1013.3
20260506084519 61 334 2.0 5.0 0.00 0.00 0.00 32 1013.3
20260506084019 61 311 3.0 5.0 0.00 0.00 0.00 31 1013.3
20260506083019 62 309 0.0 2.0 0.00 0.00 0.00 32 1013.4
20260506082519 62 310 1.0 1.0 0.00 0.00 0.00 32 1013.4
20260506082019 62 311 0.0 0.0 0.00 0.00 0.00 31 1013.4
20260506081520 62 309 0.0 0.0 0.00 0.00 0.00 31 1013.4
20260506081019 62 309 0.0 3.0 0.00 0.00 0.00 31 1013.3
20260506080519 62 309 0.0 4.0 0.00 0.00 0.00 31 1013.4
20260506073519 63 9 3.0 5.0 0.00 0.00 0.00 30 1013.1
20260506073019 63 360 3.0 3.0 0.00 0.00 0.00 30 1013.1
20260506072519 63 360 2.0 3.0 0.00 0.00 0.00 30 1013.2
20260506072019 63 360 1.0 4.0 0.00 0.00 0.00 30 1013.1
20260506071019 64 360 1.0 3.0 0.00 0.00 0.00 29 1013.2
20260506070519 64 360 1.0 2.0 0.00 0.00 0.00 29 1013.1
20260506062019 65 360 2.0 4.0 0.00 0.00 0.00 28 1013.0
20260506061519 65 360 2.0 3.0 0.00 0.00 0.00 29 1012.9
20260506060518 65 360 2.0 4.0 0.00 0.00 0.00 29 1012.8
20260506051019 67 287 1.0 5.0 0.00 0.00 0.00 28 1012.0
20260506045019 68 360 1.0 5.0 0.00 0.00 0.00 28 1011.7
20260506043019 69 360 0.0 1.0 0.00 0.00 0.00 29 1011.7
20260506042518 69 360 0.0 1.0 0.00 0.00 0.00 28 1011.5
20260506042019 70 360 0.0 2.0 0.00 0.00 0.00 28 1011.6
20260506041519 70 187 0.0 3.0 0.00 0.00 0.00 27 1011.5